Regional Weather Roundup
Issued by NWS

Home | Current Version | Previous Version | Graphics & Text | Print | Product List | Glossary Off
Versions: 1 2 3 4 5 6 7 8 9 10 11 12 13 14 15 16 17 18 19 20 21 22 23 24 25 26 27 28 29 30 31 32 33 34 35 36 37 38 39 40 41 42 43 44 45 46 47 48 49 50

000
ASUS43 KDMX 170706
RWRIA

WEATHER ROUNDUP FOR IOWA
NATIONAL WEATHER SERVICE DES MOINES IA
100 AM CST SUN DEC 17 2017

NOTE: "FAIR" INDICATES FEW OR NO CLOUDS BELOW 12,000 FEET WITH NO
SIGNIFICANT WEATHER AND/OR OBSTRUCTIONS TO VISIBILITY.

* - THESE STATIONS ARE NOT NWS STATIONS...THUS NOT UNDER NWS
QUALITY CONTROL.  THEY ALSO DO NOT REPORT WEATHER SUCH
AS PRECIPITATION OR FOG.

IAZ001>003-012>014-020>022-031>034-043>046-170800-
   NORTHWEST IOWA

CITY           SKY/WX    TMP DP  RH WIND       PRES   REMARKS
CARROLL *      MOCLDY    28  27  93 N8        29.98F WCI  20
CHEROKEE *     CLOUDY    27  26  96 NE5       30.03S WCI  22
LE MARS *      CLOUDY    25  25 100 CALM      30.04S
ORANGE CITY *  CLOUDY    28  27  93 N6        30.03S WCI  22
SHELDON *      CLOUDY    23  23 100 N10       30.03F FOG     WCI  12
SIOUX CITY     CLOUDY    28  26  92 N9        30.02F WCI  19
SPENCER        FOG       26  25  96 NE12      30.04S VSB 3/4 WCI  16
STORM LAKE *   CLOUDY    27  25  93 NE13      30.00F FOG     WCI  16
$$

IAZ055>058-069>071-079>083-090>094-170800-
   SOUTHWEST IOWA

CITY           SKY/WX    TMP DP  RH WIND       PRES   REMARKS
ATLANTIC *     CLOUDY    32  28  86 NE8       29.97S WCI  25
AUDUBON *      CLOUDY    30  27  86 N5        29.98F WCI  25
CLARINDA *       N/A     30  25  80 N3        29.98R
COUNCIL BLFS * CLOUDY    34  32  93 NE9G16    29.96R WCI  26
CRESTON *      CLOUDY    32  27  80 NE9       29.98R WCI  24
HARLAN  *      PTCLDY    30  28  93 N8        30.00F WCI  23
LAMONI         CLOUDY    39  26  59 E3        29.95F
RED OAK *      CLOUDY    30  25  80 NE5       29.97R WCI  25
SHENANDOAH *   CLOUDY    32  25  74 NE7       29.97R WCI  26
$$

IAZ047>049-059>061-072>074-084-170800-
   CENTRAL IOWA

CITY           SKY/WX    TMP DP  RH WIND       PRES   REMARKS
AMES           PTCLDY    28  25  88 N6        29.99F WCI  22
ANKENY *       PTCLDY    28  25  86 NE5       29.99F WCI  23
BOONE *        CLOUDY    28  25  86 NE7       29.97F WCI  21
CHARITON *     CLOUDY    32  25  74 CALM      29.98R
DES MOINES     CLOUDY    34  25  69 NE5       29.98S WCI  30
GRINNELL*      CLOUDY    31  24  77 NE5       30.00S WCI  26
KNOXVILLE *    CLOUDY    32  23  69 CALM      29.96F
MARSHALLTOWN   CLOUDY    27  23  85 E7        29.99S WCI  19
NEWTON *       CLOUDY    30  23  74 NE10      29.98F WCI  21
PELLA *        PTCLDY    31  23  74 CALM      29.99F
PERRY *          N/A     29  25  83 N7        29.98F WCI  22
$$

IAZ004>006-015-016-023>025-035-036-170800-
   NORTH CENTRAL IOWA

CITY           SKY/WX    TMP DP  RH WIND       PRES   REMARKS
ALGONA *       CLOUDY    27  27 100 NE10      30.03S FOG     WCI  17
CLARION *      CLOUDY    25  25 100 NE12      30.01F WCI  14
ESTHERVILLE    FOG       26  26 100 NE9       30.04S VSB 3/4 WCI  17
FORT DODGE *   CLOUDY    26  24  92 N6        30.01F WCI  19
MASON CITY     CLOUDY    20  18  92 N7        30.05S WCI  11
FOREST CITY *    N/A     27  23  86 NE6       30.04S WCI  20
WEBSTER CITY * CLOUDY    27  23  86 NE6       29.98F WCI  20
IOWA FALLS *     N/A     28  25  86 NE6       30.01F WCI  22
$$

IAZ007>011-017>019-026>030-037>042-050>054-066-170800-
   NORTHEAST IOWA

CITY           SKY/WX    TMP DP  RH WIND       PRES   REMARKS
CEDAR RAPIDS   PTCLDY    31  25  78 E8        29.99S WCI  23
CHARLES CITY * PTCLDY    27  27 100 E9        30.03S WCI  17
CLINTON *      CLOUDY    29  27  92 E10       30.04R WCI  20
DECORAH *      CLOUDY    28  28 100 E7        30.05R FOG     WCI  21
DUBUQUE        CLOUDY    29  28  96 NE14      30.03S FOG     WCI  18
MONTICELLO *   CLOUDY    30  28  93 E6        30.03R WCI  24
OELWEIN *      CLOUDY    28  28 100 E13       30.02S FOG     WCI  18
WATERLOO       CLOUDY    25  23  92 NE6       30.02S WCI  18
$$

IAZ064-065-067-068-078-170800-
   EAST CENTRAL IOWA

CITY           SKY/WX    TMP DP  RH WIND       PRES   REMARKS
DAVENPORT      CLOUDY    29  23  78 NE7       30.04S WCI  22
IOWA CITY      PTCLDY    33  25  72 NE3       30.02F
MT. PLEASANT * CLOUDY    33  24  68 CALM      30.00F
MUSCATINE *    PTCLDY    27  21  80 CALM      30.02S
QUAD CITIES    CLOUDY    27  22  81 E3        30.02R
$$

IAZ062-063-075>077-085>089-095>099-170800-
   SOUTHEAST IOWA

CITY           SKY/WX    TMP DP  RH WIND       PRES   REMARKS
BURLINGTON     CLOUDY    37  27  67 CALM      29.99F
FAIRFIELD *    CLOUDY    32  23  69 S3        29.99S
FORT MADISON * CLOUDY    37  27  65 CALM      30.00F
KEOKUK *       CLOUDY    41  27  56 SW7       30.00R
OSKALOOSA *      N/A     33  25  72 CALM      29.99S
OTTUMWA        CLOUDY    35  25  66 CALM      29.98F
WASHINGTON *   PTCLDY    28  25  86 NE5       30.01S WCI  23
$$

ABBREVIATIONS USED IN REMARKS
   TC - TEMPERATURES IN CELSIUS
  WCI - WIND CHILL INDEX
   HX - HEAT INDEX
  VSB - VISIBILITY
$$




USA.gov is the U.S. government's official web portal to all federal, state and local government web resources and services.